Tracking 20942 objects as of 4-Jul-2020
HD Live streaming from Space Station
objects crossing your sky now

SL-8 DEB

Track SL-8 DEB now!
10-day predictions


NORAD ID: 27746
Int'l Code: 1991-009DB
Perigee: 1,485.3 km
Apogee: 1,764.6 km
Inclination: 74.1 °
Period: 118.6 minutes
Semi major axis: 7995 km
RCS: 0.0277 m2 (small)
Launch date: February 12, 1991
Source: Commonwealth of Independent States (former USSR) (CIS)
Launch site: PLESETSK MISSILE AND SPACE COMPLEX (PKMTR)

Note: This is SATELLITE DEBRIS
aabbcc
Your satellite tracking list
Your tracking list is empty




NASA's NSSDC Master Catalog

Two Line Element Set (TLE):
1 27746U 91009DB  20185.65145186 +.00000276 +00000-0 +28883-2 0  9993
2 27746 074.1017 246.0196 0174695 255.9363 263.8254 12.14221657309778
Source of the keplerian elements: AFSPC